World > North America > United States > Kansas > Fredonia  

Fredonia, KS Hourly Weather Updates

Feedback E-mail the Weather

Quick Clicks

Fredonia, KS Weather Maps

°F °C°F °C
Fredonia Weather Map
UTC Time: 6/13/2024, 23:34
Your Time:

Fredonia, KS Regional Weather

Expires:202406140000;;969231
ASUS43 KTOP 132308
RWRKS 

WEATHER ROUNDUP FOR KANSAS
NATIONAL WEATHER SERVICE GOODLAND KS
600 PM CDT THU JUN 13 2024

NOTE:  "FAIR" INDICATES FEW OR NO CLOUDS BELOW 12,000 FEET WITH NO
SIGNIFICANT WEATHER AND/OR OBSTRUCTIONS TO VISIBILITY.


KSZ066>073-081>083-090>101-140000-
SOUTHEAST KANSAS
  
CITY           SKY/WX    TMP DP  RH WIND       PRES   REMARKS
CHANUTE        SUNNY     92  73  53 S16G24    29.86F HX 100           
COFFEYVILLE    SUNNY     91  71  51 S16G22    29.85F HX  97           
HUTCHINSON     CLOUDY    96  68  39 S12G26    29.80F HX 101           
MEDICINE LODGE   N/A    102  66  30 S15G23    29.79F HX 106           
NEWTON         PTSUNNY   95  69  42 S17       29.82F HX 100           
PARSONS        SUNNY     91  71  51 S12G18    29.88F HX  97           
WICHITA INTL   PTSUNNY   98  69  38 S15       29.81F HX 104           
WICHITA JABRA  PTSUNNY   93  69  45 S14G23    29.82F HX  98           
WINFIELD       SUNNY     94  72  48 S15G29    29.84F HX 102           
$$


SKY/WX - Weather  TMP - Temperature  DP - Dew Point  RH - Humidity
WIND - Wind Direction/Speed PRES - Barometric Pressure VSB - Visibility
WCI - Wind Chill Index E13G22 Wind - East Wind 13 mph/Gusts of 22 mph

Trending Headlines

Trending Entertainment Headlines

Fredonia Radar Loop

Use the map search tool if you want to place a location marker on the radar map...

Fredonia Quick Facts

National Two Day Weather Forecast


E-mail the Fredonia Weather Forecast

Voice your opinion or tell us about page issues...